Гринвич

Великобритания     51°28′40″N   0°00′57″E
темп.,
°C
ветер,
м/с
пор.,
м/с
влажн.,
%
обл.,
%
осадки,
мм/ч
давл.,
гПа
погр.,
м
17 мая, пн
пн1701:00+10сз379747 2.4 997450
04:00+8з379813 0.0 1000232
07:00+8зсз37949 0.0 1002279
10:00+13зсз347247 0.1 1004936
13:00+14з457699 1.6 1006934
16:00+14зсз3574100 2.1 10061049
19:00+12сз3689100 5.5 1007327
22:00+10зсз269372 1.0 1009152
18 мая, вт
вт1801:00+8з269513 1.0 1010171
04:00+7з259510 0.0 1011123
07:00+8з369064 0.0 1012243
10:00+13з35685 0.1 1013883
13:00+14зсз4663100 1.3 10131620
16:00+15зюз475978 0.9 10141286
19:00+12зюз4888100 2.4 1015641
22:00+10зюз4994100 1.7 1016370
19 мая, ср
ср1901:00+8юз379765 1.8 1015286
04:00+7юз259989 0.0 1015162
07:00+8з249596 0.1 1016187
10:00+12сз347156 0.1 1017834
13:00+15ссз346096 1.2 10171672
16:00+14сз4671100 1.3 1018781
19:00+13сз378622 2.7 1020567
22:00+10зсз27945 1.1 1022175
20 мая, чт
чт2001:00+8з26951 1.1 1023156
04:00+6зюз23956 0.0 102468
07:00+8зюз259062 0.0 1025177
10:00+13юз3560100 0.0 1024787
13:00+16юз564696 0.0 10231723
16:00+16юз6847100 0.0 10221865
19:00+13ююз4965100 0.0 10211065
22:00+11ююз41272100 0.0 1019905
21 мая, пт
пт2101:00+12ююз61270100 0.0 1015964
04:00+10ю61389100 1.4 1012793
07:00+10ююз61488100 1.6 1009904
10:00+13ююз611779 0.2 10071277
13:00+15юз814535 0.3 10051967
16:00+15юз815535 0.1 10032063
19:00+12юз81676100 0.6 10011444
22:00+10юз7158992 0.6 10001328